Location: Wiesbaden
(50.0830°N, 8.2500°E)
Time: 07:21:52
(UTC+01:00)

ISS - Pass Details

Date: 10 December 2019
Orbit: 411 x 421 km, 51.6° (Epoch: 15 December)

Event Time Altitude Azimuth Distance (km) Brightness Sun altitude
Rises 18:23:35 0° 282° (WNW) 2,359 1.2 -18.0°
Reaches altitude 10° 18:26:19 10° 258° (WSW) 1,494 0.3 -18.4°
Maximum altitude 18:28:19 15° 221° (SW) 1,223 -0.7 -18.7°
Drops below altitude 10° 18:30:19 10° 185° (S) 1,492 -0.8 -19.0°
Enters shadow 18:32:55 - 161° (SSE) 2,307 -0.1 -19.4°
